Vertical_Velocity
4 -1 -3 -0 -1 -3 1 3 0 4 4 1 -4 -1 -1 1 2 6 2 -0 0 1 -0 1 1 1 -1 -1 2 -2 -2 -1 -1 -1 2 0 -0 -4 -2 -1 -2 -0 2 1 -1 1 0 -1 1
-0 -0 -2 -1 -1 -1 4 1 0 -1 -1 -1 2 1 1 5 0 -2 1 -1 2 2 1 3 2 1 -0 1 1 -0 0 1 1 1 -0 -3 -2 1 0 -1 2 3 2 1 -0 -1 1 -1 -2
-2 -1 -3 -1 -0 -0 1 1 1 3 -1 1 1 2 1 3 2 1 0 -1 1 2 1 1 2 3 2 2 -2 -1 -1 -1 2 2 -0 -1 2 2 -1 -1 -1 2 1 0 0 1 -4 -2 -2
-0 -2 -2 -3 -0 3 -0 0 0 3 12 1 1 -1 -2 1 2 0 0 1 1 0 1 -1 1 0 0 3 -0 -1 1 0 -1 1 2 7 2 0 4 1 4 1 -1 -1 -2 -2 -1 -1 -0
-1 0 -1 0 -1 1 1 -0 0 0 -0 1 1 6 1 1 1 -1 1 1 1 -0 -0 -0 1 -0 0 2 -1 1 2 -2 0 -1 1 1 4 4 2 -0 -1 0 -3 -3 4 2 1 -0 -1
-1 0 2 -0 0 0 1 -0 -2 -0 1 2 -3 -3 2 2 2 0 2 1 2 2 -1 -1 0 1 1 1 1 -0 1 -0 0 4 3 1 2 -3 -4 -1 -1 -1 -1 2 -0 1 -1 -2 -1
-0 1 0 -0 1 2 -1 -2 -1 -1 0 3 -2 -2 1 2 1 1 1 3 -1 1 -2 -0 -1 0 0 0 1 -1 -1 -0 0 0 1 2 -3 5 3 8 1 3 2 -1 2 -1 -2 -1 -1
-1 3 0 0 -1 3 1 -1 -1 -2 5 -2 -1 -1 1 0 1 -0 0 1 2 0 0 1 1 1 -1 -1 1 -1 -1 1 0 -1 1 1 1 0 -0 5 -0 0 -0 -1 -2 1 2 -1 2
2 1 0 -0 -1 3 2 -1 6 1 -5 2 1 -5 -3 -2 1 1 1 -0 0 -1 0 -0 -1 0 3 2 2 2 -0 1 1 -1 -0 0 -1 -2 1 -0 0 -3 -2 1 -2 -1 -4 -0 -1
2 1 -0 -1 -2 -1 -1 -4 -3 -1 3 3 1 10 1 1 -1 -0 -0 -2 0 -2 -1 -0 -0 -2 0 0 0 -0 0 -0 -0 -2 1 -1 0 1 -3 -1 1 -0 -1 -0 -1 -2 -2 -1 3
-0 0 0 2 -1 -3 -1 2 0 -3 3 -3 -11 -2 -2 -1 1 -0 1 4 0 1 0 -1 0 -0 3 0 -0 -0 1 2 -2 -1 1 1 -1 -2 -2 -0 2 -4 -2 -2 -1 0 2 -1 0
4 -1 0 1 2 -1 0 -1 3 -0 -1 -1 3 -1 -4 1 -1 -1 0 -1 -2 1 1 -1 1 0 0 -0 0 0 0 2 -0 1 -0 1 0 -1 -0 -2 -3 -0 2 0 -1 -2 1 -2 -2
2 0 0 1 2 -1 -1 1 -2 2 3 1 2 2 0 2 -0 -3 4 -2 1 2 0 1 -0 0 -2 -0 -1 -0 0 1 -0 0 1 1 -1 -1 0 -1 -1 -1 -3 -1 -3 -1 1 2 1
-0 0 1 5 2 -0 -7 5 -6 5 4 0 2 -1 1 1 -1 -0 -0 -0 0 1 0 1 0 -1 -1 0 -1 -1 1 1 -0 -1 1 0 -1 -2 -0 -1 -1 -2 -3 -2 -2 -1 -2 -1 -1
4 -2 3 6 2 2 -6 3 -1 -3 4 -0 2 2 1 -1 0 2 0 1 -0 3 -1 1 0 0 0 1 1 -2 0 2 -1 -0 -0 0 1 -0 1 1 -2 -0 -0 -2 -1 -2 -1 -1 -1
1 -0 1 3 1 -2 1 0 2 -0 -4 1 2 1 -0 -1 0 -1 -1 2 -0 -1 1 0 -1 -1 1 -1 1 1 1 2 0 -2 0 -0 -1 -0 -1 1 2 1 -0 -0 1 -1 -1 -1 0
-0 -0 1 9 -1 -1 2 -1 1 4 4 1 1 1 -2 1 -2 0 -0 -0 -0 -1 -1 1 -0 1 2 1 -0 2 -0 0 1 -0 -1 -0 0 0 -0 0 -1 0 1 -0 -1 -2 -2 -0 0
-1 1 2 -2 -1 2 3 2 3 -1 2 -3 0 0 0 -3 -7 -1 -1 -0 1 -0 0 0 0 -1 1 1 -2 1 0 -2 -2 1 -1 -1 0 -1 -1 1 -0 -1 -1 -1 -2 -3 -3 -1 0
-2 -0 -1 -1 0 0 -0 0 1 -1 7 2 2 0 0 -5 2 1 -0 1 1 2 0 -1 -1 -2 -3 -2 -2 0 1 -0 -1 -1 0 1 0 1 1 1 -1 -0 -0 1 -0 -1 -1 -0 -0
0 -1 1 2 2 -6 0 0 -1 1 -5 -5 -2 -0 -0 5 -2 0 -0 0 -2 4 1 -0 1 -1 0 2 1 2 -0 -1 -1 1 -1 0 1 2 1 1 -1 -0 0 -0 -1 -1 1 -1 -4
1 -1 0 -4 4 -1 -6 -3 -1 -0 2 2 0 -1 4 -4 -4 -2 -0 -2 1 -2 -1 -2 0 1 1 -0 1 4 1 -0 -1 -3 -2 -0 -1 -1 -2 1 1 -1 1 -0 -1 0 1 -0 -2
2 -1 -1 -0 1 -1 0 -1 -1 -1 0 2 0 0 -3 -1 3 4 -0 -4 -7 -2 -1 -1 -1 -1 0 -1 -2 6 8 5 3 -1 -3 -2 -2 -1 -2 -1 -1 -2 -1 -0 -1 1 1 -1 -1
-1 -1 -2 -1 -1 -3 5 -8 -7 3 4 -2 -2 -1 -0 -3 -2 -6 -8 -0 -1 -3 -2 1 2 1 0 1 1 2 4 1 2 2 -0 -1 -1 -3 -0 -0 -2 -2 -3 -1 0 -2 -1 -2 -1
-1 -2 -1 0 -1 3 -4 -1 -2 -2 -13 -1 0 0 -1 -1 1 0 6 6 0 4 1 -1 0 1 1 1 2 1 3 4 0 -0 -2 -0 -0 -1 -2 -0 2 -1 -2 -0 1 0 -1 -1 -2
4 4 2 9 6 -1 0 6 -3 -1 -1 -3 -4 -2 -4 1 -1 -1 -1 -4 2 -4 -4 -1 2 -3 -1 -1 0 2 1 1 7 3 0 -1 1 4 1 -0 0 1 1 -1 -0 2 8 1 1
-4 -3 -4 -4 -2 -5 2 -2 3 -1 -2 -2 -2 1 0 1 -1 -3 1 -1 -3 -1 -2 -2 -2 0 1 4 -1 2 3 1 2 5 4 -0 4 1 4 2 -4 0 0 -2 -1 -1 1 0 1
2 4 -7 -1 1 6 -1 1 6 1 0 1 2 3 0 3 -5 -2 2 0 5 -16 -6 5 0 2 6 4 2 -2 4 0 1 1 -0 1 -1 1 2 3 3 -1 -2 -0 -1 -1 1 -2 -1
-1 -7 9 2 2 2 2 -1 -1 2 1 1 3 2 4 4 5 -2 3 2 8 4 -2 -2 2 4 7 4 2 -3 1 10 3 -0 -0 3 2 -2 -1 1 1 5 -3 1 1 -1 -0 1 -3
6 4 1 -2 3 -3 -1 -2 1 -1 -2 -1 1 0 -0 2 1 4 -2 -2 1 4 -0 -10 -9 1 -2 4 7 5 -1 4 3 2 0 -2 0 2 -1 1 1 -2 6 -2 5 7 -3 -2 -2
-1 -0 -1 2 1 1 1 3 0 -0 -1 -1 0 -1 0 -1 -1 1 -1 -2 1 -1 3 -2 3 4 -2 -3 -7 -7 -0 0 4 1 4 -1 -2 -0 -0 -2 -1 7 -9 2 -2 2 1 2 2
Height
1527 1527 1527 1526 1531 1525 1538 1541 1539 1543 1546 1548 1551 1551 1551 1554 1554 1562 1564 1567 1570 1573 1574 1576 1577 1578 1578 1578 1578 1578 1579 1579 1580 1581 1581 1582 1582 1583 1583 1584 1585 1585 1585 1585 1585 1585 1586 1587 1587
1528 1528 1528 1527 1533 1533 1542 1538 1541 1541 1544 1548 1550 1551 1552 1556 1557 1560 1565 1568 1571 1573 1575 1576 1577 1578 1579 1580 1580 1580 1580 1581 1582 1582 1583 1584 1585 1586 1586 1587 1587 1587 1588 1588 1588 1589 1589 1590 1590
1529 1530 1531 1532 1540 1537 1540 1538 1539 1541 1544 1548 1549 1553 1554 1559 1560 1562 1565 1569 1572 1574 1576 1577 1578 1579 1580 1581 1581 1581 1582 1583 1584 1585 1586 1586 1587 1588 1589 1589 1590 1591 1591 1592 1592 1593 1594 1594 1594
1530 1531 1534 1539 1540 1537 1535 1538 1540 1542 1548 1549 1549 1553 1559 1560 1563 1564 1567 1571 1573 1575 1577 1578 1580 1581 1581 1582 1583 1583 1584 1585 1586 1587 1588 1588 1590 1591 1590 1592 1593 1593 1595 1595 1596 1597 1597 1597 1597
1531 1532 1539 1541 1539 1537 1537 1539 1540 1541 1545 1549 1550 1558 1561 1564 1565 1567 1570 1573 1575 1577 1579 1580 1581 1582 1582 1583 1583 1585 1585 1587 1588 1589 1590 1591 1592 1593 1594 1595 1596 1597 1598 1599 1599 1600 1600 1600 1599
1531 1532 1536 1543 1539 1536 1539 1540 1541 1543 1545 1549 1551 1556 1565 1566 1567 1569 1573 1576 1578 1579 1581 1582 1583 1583 1584 1585 1585 1586 1587 1588 1590 1592 1592 1593 1594 1595 1597 1598 1599 1600 1601 1601 1602 1601 1602 1602 1602
1532 1530 1530 1533 1538 1541 1537 1540 1541 1543 1546 1549 1551 1556 1565 1567 1569 1571 1575 1577 1579 1581 1582 1583 1585 1585 1586 1587 1587 1588 1589 1590 1591 1593 1594 1595 1597 1598 1600 1600 1602 1603 1603 1604 1605 1605 1604 1604 1604
1531 1529 1530 1530 1537 1536 1537 1539 1541 1543 1548 1550 1552 1556 1563 1565 1569 1572 1576 1579 1580 1582 1583 1585 1586 1587 1588 1589 1589 1589 1591 1592 1593 1595 1596 1598 1599 1601 1602 1603 1604 1605 1606 1607 1607 1607 1607 1607 1607
1530 1532 1532 1530 1530 1533 1537 1538 1543 1544 1547 1550 1554 1555 1561 1565 1570 1574 1576 1579 1581 1583 1584 1586 1587 1588 1590 1591 1591 1592 1592 1594 1596 1598 1599 1600 1601 1603 1605 1605 1607 1608 1609 1609 1609 1610 1609 1609 1609
1530 1529 1526 1523 1523 1528 1536 1538 1542 1545 1547 1552 1555 1558 1563 1567 1571 1575 1576 1579 1582 1583 1586 1587 1588 1590 1591 1592 1592 1594 1595 1596 1598 1600 1601 1602 1603 1605 1606 1607 1609 1610 1611 1611 1612 1612 1612 1612 1612
1529 1526 1523 1523 1525 1529 1534 1540 1541 1544 1546 1548 1552 1556 1564 1568 1573 1576 1579 1581 1583 1584 1586 1588 1590 1591 1593 1594 1595 1596 1597 1599 1601 1603 1604 1605 1606 1607 1608 1609 1611 1613 1613 1613 1614 1614 1614 1614 1614
1528 1524 1523 1525 1528 1532 1535 1540 1543 1546 1547 1549 1555 1557 1563 1568 1572 1576 1579 1581 1583 1585 1587 1590 1591 1593 1595 1596 1597 1598 1600 1601 1603 1605 1606 1607 1608 1609 1611 1612 1614 1615 1615 1616 1616 1616 1615 1616 1616
1527 1523 1523 1526 1530 1534 1538 1541 1545 1549 1550 1555 1559 1562 1566 1570 1573 1577 1580 1582 1584 1586 1589 1591 1593 1595 1596 1598 1600 1601 1603 1604 1606 1608 1609 1610 1611 1612 1613 1615 1616 1617 1617 1617 1617 1618 1618 1618 1618
1525 1523 1525 1529 1532 1536 1539 1544 1545 1553 1554 1558 1561 1564 1567 1570 1574 1577 1580 1582 1585 1588 1590 1592 1595 1597 1599 1601 1602 1604 1605 1607 1609 1611 1612 1613 1614 1614 1615 1616 1618 1619 1619 1620 1620 1620 1620 1620 1621
1525 1525 1528 1531 1534 1538 1541 1548 1550 1552 1557 1559 1563 1566 1569 1571 1575 1578 1580 1583 1586 1589 1592 1594 1596 1598 1601 1603 1605 1606 1608 1610 1612 1613 1614 1615 1616 1616 1617 1618 1619 1620 1621 1621 1622 1622 1622 1622 1623
1526 1525 1531 1532 1534 1538 1543 1550 1549 1552 1556 1560 1564 1567 1569 1572 1575 1578 1582 1584 1588 1590 1593 1595 1597 1599 1602 1604 1606 1608 1610 1611 1613 1614 1616 1617 1617 1618 1618 1619 1620 1621 1622 1623 1623 1624 1624 1624 1624
1531 1530 1532 1534 1534 1539 1544 1550 1549 1552 1556 1559 1563 1567 1570 1573 1576 1579 1582 1585 1588 1591 1594 1596 1598 1601 1603 1605 1607 1609 1611 1612 1613 1615 1616 1618 1619 1619 1620 1621 1621 1622 1623 1624 1625 1625 1625 1625 1625
1533 1530 1527 1530 1532 1535 1541 1547 1549 1550 1555 1557 1561 1566 1570 1573 1575 1578 1582 1586 1588 1591 1594 1597 1599 1601 1603 1605 1607 1609 1611 1613 1614 1615 1616 1618 1619 1620 1621 1622 1623 1624 1625 1626 1626 1627 1627 1627 1627
1520 1524 1531 1526 1528 1534 1540 1547 1548 1552 1555 1558 1560 1564 1568 1569 1574 1578 1581 1585 1588 1590 1593 1596 1598 1600 1603 1605 1607 1609 1611 1612 1614 1615 1617 1618 1619 1620 1622 1623 1624 1625 1626 1627 1627 1628 1628 1628 1628
1520 1523 1526 1528 1529 1536 1543 1551 1553 1553 1552 1555 1557 1561 1564 1570 1574 1576 1579 1583 1586 1589 1592 1594 1598 1600 1602 1604 1607 1609 1611 1612 1613 1615 1616 1617 1618 1620 1621 1623 1625 1625 1626 1628 1629 1629 1629 1629 1628
1522 1522 1525 1523 1539 1544 1547 1558 1555 1550 1553 1554 1556 1558 1562 1566 1570 1574 1576 1580 1584 1587 1590 1593 1597 1600 1602 1604 1606 1608 1609 1611 1612 1614 1615 1617 1618 1620 1622 1623 1624 1626 1627 1628 1629 1629 1630 1629 1629
1524 1519 1520 1527 1529 1547 1544 1568 1553 1547 1549 1550 1551 1554 1558 1563 1568 1571 1573 1577 1581 1585 1589 1592 1596 1598 1601 1603 1605 1608 1609 1610 1611 1613 1614 1615 1617 1619 1621 1622 1624 1625 1626 1628 1629 1629 1630 1630 1630
1520 1520 1520 1525 1533 1536 1548 1560 1544 1542 1546 1541 1546 1551 1554 1558 1563 1566 1569 1573 1578 1582 1586 1590 1594 1597 1599 1602 1604 1606 1608 1609 1611 1612 1613 1614 1616 1617 1619 1621 1623 1625 1626 1627 1628 1629 1630 1631 1630
1520 1523 1526 1529 1528 1542 1533 1536 1539 1538 1529 1534 1543 1548 1551 1554 1558 1562 1565 1570 1575 1580 1584 1589 1592 1596 1598 1601 1603 1605 1607 1608 1610 1611 1612 1614 1615 1616 1617 1620 1621 1623 1625 1626 1627 1629 1630 1630 1631
1519 1523 1543 1541 1544 1540 1534 1538 1521 1529 1533 1534 1535 1540 1546 1551 1554 1559 1562 1566 1571 1576 1582 1587 1591 1593 1597 1600 1602 1604 1606 1608 1610 1611 1611 1612 1613 1615 1616 1618 1620 1622 1623 1625 1626 1627 1629 1630 1630
1518 1515 1528 1543 1544 1533 1536 1534 1520 1532 1534 1533 1531 1535 1542 1547 1550 1555 1559 1563 1568 1574 1580 1585 1587 1591 1594 1598 1601 1603 1605 1607 1609 1610 1610 1611 1613 1615 1616 1616 1617 1620 1622 1623 1624 1626 1627 1628 1629
1518 1520 1508 1523 1532 1525 1527 1525 1529 1531 1532 1529 1527 1531 1536 1541 1545 1551 1556 1560 1565 1569 1576 1581 1585 1589 1593 1596 1600 1602 1604 1605 1607 1609 1609 1611 1612 1613 1613 1615 1617 1618 1620 1621 1621 1623 1625 1626 1627
1505 1506 1519 1521 1537 1536 1533 1529 1515 1526 1531 1532 1532 1534 1536 1539 1542 1546 1553 1558 1563 1567 1572 1578 1582 1586 1590 1594 1597 1601 1603 1605 1605 1607 1608 1610 1610 1611 1612 1613 1615 1616 1617 1618 1619 1620 1622 1623 1625
1509 1509 1512 1507 1516 1519 1528 1521 1521 1520 1526 1531 1534 1535 1536 1538 1541 1545 1549 1555 1561 1565 1569 1573 1576 1582 1586 1590 1593 1597 1600 1601 1603 1604 1606 1607 1608 1608 1610 1611 1612 1613 1614 1615 1616 1617 1618 1620 1621
1501 1505 1502 1505 1525 1521 1512 1514 1524 1524 1526 1530 1534 1537 1538 1539 1541 1545 1549 1553 1557 1562 1566 1570 1574 1578 1583 1587 1590 1593 1595 1599 1601 1602 1603 1604 1605 1606 1607 1608 1609 1610 1611 1613 1613 1615 1616 1617 1618